Location: Coopersdale
(40.3556°N, 78.9372°W)
Time: 21:07:53
(UTC+00:00)

X-37B - Visible Passes

Search period start: 30 November 2020 00:00
Search period end: 10 December 2020 00:00
Orbit: 384 x 390 km, 45.0° (Epoch: 26 November)

Date Brightness Start Highest point End Pass type
(mag) Time Alt. Az. Time Alt. Az. Time Alt. Az.
30 Nov 0.9 22:57:30 10° W 23:00:38 58° NNW 23:02:13 25° NE visible
01 Dec 1.8 23:35:55 10° WNW 23:38:33 34° NNW 23:38:33 34° NNW visible
02 Dec 1.3 22:37:09 10° W 22:40:11 42° NNW 22:42:35 15° ENE visible
03 Dec 3.6 00:14:15 10° WNW 00:14:52 14° WNW 00:14:52 14° WNW visible
03 Dec 1.6 23:15:34 10° WNW 23:18:30 33° N 23:18:55 31° NNE visible
04 Dec 1.6 22:16:49 10° WNW 22:19:47 35° N 22:22:45 10° ENE visible
04 Dec 2.6 23:53:45 10° WNW 23:55:17 24° NW 23:55:17 24° NW visible
05 Dec 1.5 22:55:09 10° WNW 22:58:06 35° N 22:59:25 24° NE visible
06 Dec 1.0 23:33:12 10° WNW 23:35:55 52° NNW 23:35:55 52° NNW visible
07 Dec 1.1 22:34:38 10° WNW 22:37:42 42° NNE 22:40:15 13° E visible
08 Dec 3.2 00:11:17 10° WNW 00:12:32 21° W 00:12:32 21° W visible
08 Dec 0.5 23:12:39 10° WNW 23:15:50 86° SSW 23:17:01 35° ESE visible
09 Dec 0.7 22:14:06 10° WNW 22:17:15 59° NNE 22:20:22 10° E visible
09 Dec 2.5 23:51:00 10° W 23:53:43 26° SW 23:54:01 26° SSW visible
